Location: Oshawa
(43.9000°N, 78.8670°W)
Time: 19:27:25
(UTC-04:00)

CARTOSAT-1 - Visible Passes

Search period start: 31 August 2016 00:00
Search period end: 10 September 2016 00:00
Orbit: 618 x 619 km, 97.9° (Epoch: 31 August)

Date Brightness Start Highest point End Pass type
(mag) Time Alt. Az. Time Alt. Az. Time Alt. Az.
31 Aug 5.2 23:12:58 31° NNW 23:12:58 31° NNW 23:15:17 10° NNW visible
01 Sep 5.7 21:52:55 14° NE 21:52:55 14° NE 21:54:30 10° NNE visible
01 Sep 5.6 23:30:03 26° NNW 23:30:03 26° NNW 23:32:03 10° NNW visible
02 Sep 5.5 22:10:01 18° NE 22:10:01 18° NE 22:11:59 10° NNE visible
02 Sep 6.0 23:47:09 20° NW 23:47:09 20° NW 23:48:41 10° NNW visible
03 Sep 5.4 22:27:06 22° NNE 22:27:06 22° NNE 22:29:11 10° N visible
04 Sep 6.4 00:04:15 15° NW 00:04:15 15° NW 00:05:10 10° NW visible
04 Sep 5.4 22:44:12 25° NNE 22:44:12 25° NNE 22:46:14 10° N visible
05 Sep 6.7 00:21:20 10° NW 00:21:20 10° NW 00:21:26 10° NW visible
05 Sep 5.5 23:01:18 25° N 23:01:18 25° N 23:03:10 10° N visible
06 Sep 6.0 21:41:16 10° NE 21:41:16 10° NE 21:41:26 10° NE visible
06 Sep 5.8 23:18:23 22° NNW 23:18:23 22° NNW 23:20:00 10° NNW visible
07 Sep 5.8 21:58:22 14° NE 21:58:22 14° NE 21:59:27 10° NNE visible
07 Sep 6.1 23:35:30 18° NNW 23:35:30 18° NNW 23:36:45 10° NNW visible
08 Sep 5.7 22:15:28 17° NNE 22:15:28 17° NNE 22:16:51 10° NNE visible
08 Sep 6.5 23:52:36 14° NW 23:52:36 14° NW 23:53:21 10° NNW visible
09 Sep 5.7 22:32:34 19° NNE 22:32:34 19° NNE 22:34:01 10° N visible
